Location: Gugi
(45.4667°N, 11.1000°E)
Time: 05:39:01
(UTC+00:00)

Cosmos 1805 Rocket - Pass Details

Date: 17 November 2019
Orbit: 606 x 629 km, 82.5° (Epoch: 13 December)

Event Time Altitude Azimuth Distance (km) Brightness Sun altitude
Rises 16:13:57 0° 356° (N) 2,881 6.8 -5.6°
Reaches altitude 10° 16:16:15 10° 3° (N) 1,974 5.9 -6.0°
Maximum altitude 16:20:28 46° 77° (ENE) 831 3.8 -6.7°
Drops below altitude 10° 16:24:40 10° 151° (SSE) 1,971 6.1 -7.4°
Sets 16:26:57 0° 157° (SSE) 2,875 7.0 -7.8°
